SEBI

Registration No.

INH000000305

Ip Address Lookup

So far visitors:

customizable counter

TRIAL

TRIAL

SEND SMS FOR TRIAL

EQUITY - COMMODITY OR BOTH

TO

 09920033678

AND GET TRIAL

 


Information: COPPER (MCX): LOT SIZE CHANGED TO 2500 from 1000 (from JUL CONTRACT)

SEBI Registration No.: INH000000305 *****

* Commodity: 9500/month * Equity: 6000/month


* Gold Package: 7000 * Gold-Silver Package: 8100
*Crude-NG-Copper-Nickel Package: 6000


To See Past Performance, Click Here

For TRIAL / Registration,

click here

Past Performance >> Equity Tips
 
Search
 
Entry Start Date Entry End Date
Exit Start Date Exit End Date
Scrip Name Contract
Package
 

Packages: Precious Metals - Energy and Base Metals - Profit is calculated on basis of 1 lot per call

Package: Equity calls: Profit is calculated as follows:

1. If the scrip is in F & O then 1 lot is counted otherwise

2. Trade of Rs.1,50,000/- per call is counted.

 
Page: ( 1 2 3 4 5 6 7 8 9 10 11 12 13 14 15 16 17 18 19 20 21 22 23 24 25 26 27 28 29 30 31 32 33 34 35 36 37 38 39 40 41 42 43 44 45 46 47 48 49 50 51 52 53 54 55 56 57 58 59 60 61 62 63 64 65 66 67 68 69 70 71 72 73 74 75 76 77 78 79 80 81 82 83 84 85 86 87 88 89 90 91 92 93 94 95 96 97 98 99 100 101 102 103 104 105 106 107 108 109 110 111 112 ) [Current Page: 35]
Displaying 2551 to 2625   Calls
Entry Date Type Scrip Entry Price (Rs) T1
(Rs)
T2
(Rs)
T3
(Rs)
Stop Loss
(Rs)
Exit Date Exit Rate
(Rs)
Profit
(Rs)
 
05-01-16 Buy CENTURY 600 605 615 625 590 06-01-16 606 4800.00 More
05-01-16 Sell CENTURY 586 580 575 565 590 05-01-16 590 -3200.00 More
05-01-16 Buy RELIANCE INFRA 609 615 625 635 599 05-01-16 621 15600.00 More
05-01-16 Buy BIOCON 542 546 550 560 535 06-01-16 535 -7700.00 More
04-01-16 Buy Tata Power 70 71.50 73 77 69 04-01-16 69 -8000.00 More
04-01-16 Buy DLF 123 125 127 135 121 04-01-16 121 -10000.00 More
04-01-16 Buy Walchandnagar 183 190 195 205/225 175 04-01-16 189.90 3450.00 More
04-01-16 Buy BF Utilities 720 735 750 775/825 700 04-01-16 700 -3000.00 More
04-01-16 Buy RELIANCE CAPITAL 468 475 485 505 460 04-01-16 460 -12000.00 More
01-01-16 Buy BERGER PAINT 260 269 285 300/325 238 04-01-16 266 2400.00 More
01-01-16 Buy BANK NIFTY 17090 17150 17250 17350 17000 01-01-16 17144 3240.00 More
01-01-16 Buy SBI 229 235 239 245/260 225 04-01-16 225 -5000.00 More
01-01-16 Buy ASHAPURA MINECHEM 100 105 110 125 93 04-01-16 93 -7000.00 More
01-01-16 Buy HFCL 20.70 23 25 27/30 18.20 01-01-16 22.40 8500.00 More
01-01-16 Buy RELIANCE INFRA 548 555 565 575/600 542 01-01-16 597 63700.00 More
01-01-16 Buy GPPL 143 152 162 175 128 04-01-16 159 12000.00 More
31-12-15 Buy MTNL 22 25 28 30 19.50 04-01-16 22.25 1250.00 More
30-12-15 Buy RELIANCE INFRA 511 514 518 535 504 30-12-15 516.95 7735.00 More
30-12-15 Buy AURO PHARMA 882 890 900 925 869 30-12-15 869 -9100.00 More
29-12-15 Buy BERGER PAINT 260 265 275 285 257 29-12-15 265 2000.00 More
29-12-15 Buy Jindal Saw 64 67 70 75 61.50 04-01-16 62.50 -2550.00 More
29-12-15 Buy NTPC 145 148 152 156 141 29-12-15 147 4000.00 More
29-12-15 Buy IGL 533 538 542 550 520 29-12-15 541 8800.00 More
29-12-15 Buy 1847 1855 1865 1875 1833 29-12-15 1860 3900.00 More
29-12-15 Buy AMD IND 35 38 40 45 30 04-01-16 34 -3300.00 More
28-12-15 Buy Indian Hotel 119 124 128 130 114 29-12-15 114 -5000.00 More
28-12-15 Buy IDFC 48.50 50 52 54/58 46.50 04-01-16 48 -1650.00 More
28-12-15 Buy ADANI ENT 85 88 92 98/105 82.75 04-01-16 92 42000.00 More
24-12-15 Buy AURO PHARMA 875 885 900 925 848 24-12-15 883 5600.00 More
24-12-15 Buy VIP Industries 103.50 108 115 124 92 31-12-15 107.50 4000.00 More
23-12-15 Buy BOMDYEING 65 70 75 85 60 04-01-16 65 0.00 More
23-12-15 Buy BHEL 170 178 188 195/205 164 23-12-15 173 6000.00 More
23-12-15 Buy BERGER PAINT 255 258 260 275 238 23-12-15 257.50 1000.00 More
23-12-15 Buy BF Utilities 643 650 660 675 632 01-01-16 720 15400.00 More
23-12-15 Buy GSPL 138.50 144 146 148 130 04-01-16 144 4125.00 More
23-12-15 Buy TATA MOTORS 380 384 388 395/405 369 24-12-15 385 7500.00 More
23-12-15 Buy RUBY MILLS 410 418 425 435 395 24-12-15 439 7250.00 More
22-12-15 Buy JSWSteel 1055 1065 1075 1125 1044 22-12-15 1044 -6600.00 More
22-12-15 Buy IFCI 27.60 28.25 29.25 31.50 26.90 22-12-15 26.90 -14000.00 More
22-12-15 Buy RELIANCE CAPITAL 411 415 421 435 407 22-12-15 415 6000.00 More
22-12-15 Buy BBL 875 890 925 1025 845 22-12-15 898 3220.00 More
21-12-15 Buy BANK NIFTY 16800 16860 16960 17050 16700 21-12-15 16860 3600.00 More
21-12-15 Buy ADOR WELDING 361 366 375 390 350 22-12-15 350 -3300.00 More
21-12-15 Buy ICICI BANK 253 255 257 259 250 21-12-15 258 8500.00 More
18-12-15 Buy BIOCON 487 492 495 500 483 18-12-15 483 -4400.00 More
18-12-15 Buy NALCO 42 44 46 48/60 40.50 21-12-15 44 5000.00 More
18-12-15 Buy DLF 116.50 118 120 124 115 18-12-15 115 -7500.00 More
17-12-15 Sell TITAN 353 351 349 347 357 17-12-15 352 1500.00 More
17-12-15 Sell M&M 1210 1190 1180 1170 1220 17-12-15 1200 4000.00 More
17-12-15 Buy 64 66 68 72/78 60.50 22-12-15 66.90 4350.00 More
16-12-15 Buy TATA MOTORS 382 388 392 400 379 17-12-15 388 9000.00 More
16-12-15 Buy ARVIND 304 306 309 312 300 16-12-15 309.50 9350.00 More
16-12-15 Buy HDFC 1213 1218 1222 1235 1200 16-12-15 1223 4000.00 More
16-12-15 Buy VOLTAS 298 303 305 309 293 16-12-15 302.90 7840.00 More
16-12-15 Buy ESCORTS 157 161 164 169 152.50 17-12-15 161 3200.00 More
15-12-15 Buy SBI 225 235 245 255/265 220 17-12-15 232 8750.00 More
15-12-15 Buy Uflex 182.50 184.50 188 195 179 15-12-15 182 -262.50 More
15-12-15 Buy IRB Infra 237 239 241 244 234.50 15-12-15 239 4200.00 More
15-12-15 Buy PNB MARCH 120 CALL 843 848 852 860 837 15-12-15 854 6600.00 More
14-12-15 Buy ADANI ENT 75 85 95 100 70 15-12-15 80.50 33000.00 More
14-12-15 Buy IGL 488 492 495 505 475 14-12-15 475 -14300.00 More
14-12-15 Sell ONGC 215.20 213 211 209 217 14-12-15 213 4400.00 More
11-12-15 Buy NMDC 87 94 98 105 85 17-12-15 92.50 27500.00 More
11-12-15 Buy AURO PHARMA 813 818 822 828/835 800 11-12-15 824 7700.00 More
10-12-15 Sell Apollo Tyres 150 148 145 140 153 10-12-15 148.50 4500.00 More
10-12-15 Buy VEDL 83 90 95 105 75 17-12-15 92.75 39000.00 More
10-12-15 Buy HCC 23 27.50 29.50 32 19.50 24-12-15 27.10 20500.00 More
10-12-15 Buy PeninsulaLand 22.50 25.50 27.50 29.50 19.50 24-12-15 26.25 15000.00 More
09-12-15 Buy IGL 463 470 485 490 450 11-12-15 485 24200.00 More
09-12-15 Sell 315 310 305 300 321 09-12-15 310 6000.00 More
03-12-15 Buy JSWSteel 985 995 1005 1015/1025 960 03-12-15 1000 9000.00 More
02-12-15 Buy DEEPAKFERTILISER 160 165 170 175 150 08-12-15 150 -6000.00 More
02-12-15 Buy RComm 78.50 80 82 84/88 76.75 03-12-15 86 60000.00 More
02-12-15 Buy Coal India 345 350 355 360/370 340 02-12-15 340 -6000.00 More
02-12-15 Buy ANG IND 59 62 65 70/75 55 03-12-15 55 -6000.00 More
Page wise profit 428297.50 Rs
Profit 26725375.50 Rs
TRIAL

TRIAL

SEND SMS FOR TRIAL

EQUITY - COMMODITY OR BOTH

TO

 09920033678

AND GET TRIAL